"Pseudo-MPEC" for C2CP3D2

Created 2020 Mar 28 6:07:04 UT using Find_Orb

Click here for an explanation of pseudo-MPECs

 
 Astrometry: 
     C2CP3D2  C2020 03 16.27896 11 06 33.77 -07 47 06.3    ~3G7q 20.8 GVNEOCPG96
     C2CP3D2  C2020 03 16.28480 11 06 31.55 -07 47 06.5    ~3G7q 21.6 GVNEOCPG96
     C2CP3D2  C2020 03 16.29063 11 06 29.30 -07 47 07.3    ~3G7q 21.2 GVNEOCPG96
     C2CP3D2  C2020 03 16.29645 11 06 27.16 -07 47 07.7    ~3G7q 21.6 GVNEOCPG96
     C2CP3D2  C2020 03 16.40405 11 05 48.37 -07 47 06.6    ~3GAM 21.0 GVNEOCPI52
     C2CP3D2  C2020 03 16.40907 11 05 46.65 -07 47 05.6    ~3GAM 21.4 GVNEOCPI52
     C2CP3D2  C2020 03 16.41409 11 05 45.10 -07 47 04.8    ~3GAM       VNEOCPI52
     C2CP3D2 |C2020 03 17W5tUQ1EAstrometry0^_eb=0(ou3f+Eredacted;d$gclick_XFy807
     C2CP3D2 |C2020 03 17?0T6f_eo`Ju296nbf'NK8PhereGw.mPMc;['@Vl5qeB]X3Rfor@y807
     C2CP3D2 |C2020 03 17YH$:a.a8=/CDr^ZLe(1jy(/A@g.raa+/fEJt-cexplanationkp`807

Station data:
(807) Cerro Tololo Observatory, La Serena  (S30.169136 W70.805900)  Chile.
(G96) Mt. Lemmon Survey  (N32.442754 W110.788720)  US/Arizona.  Observers T.
   A. Pruyne, B. M. Africano, E. J. Christensen, G. A. Farneth, D. C. Fuls,
   A. R. Gibbs, A. D. Grauer, H. Gröller, J. A. Johnson, R. A. Kowalski, S.
   M. Larson, G. J. Leonard, D. Rankin, R. L. Seaman, F. C. Shelly. 1.5-m
   reflector + 10K CCD.
(I52) Steward Observatory, Mt. Lemmon Station  (N32.442547 W110.788920)
   US/Arizona.  Observers T. A. Pruyne, B. M. Africano, E. J. Christensen, G.
   A. Farneth, D. C. Fuls, A. R. Gibbs, A. D. Grauer, H. Gröller, J. A.
   Johnson, R. A. Kowalski, S. M. Larson, G. J. Leonard, D. Rankin, R. L.
   Seaman, F. C. Shelly. 1.0-m reflector + CCD.

Orbital elements:  C2CP3D2
   Perihelion 2020 Jan 12.121847 +/- 0.9 TT =  2:55:27 (JD 2458860.621847)
Epoch 2020 Mar 17.0 TT = JDT 2458925.5   Earth MOID: 0.0013   Ve: 0.0322
M  51.49821088 +/- 1.7              (J2000 ecliptic)          AutoNEOCP
n   0.79376813 +/- 0.0152           Peri.   80.77657 +/- 0.016
a   1.15524370 +/- 0.0147           Node   352.34990 +/- 0.07
e   0.4436893 +/- 0.0138            Incl.    6.78553 +/- 0.21
P   1.24/453.52d           H 28.1   G  0.15   U  9.9  
q 0.64267432 +/- 0.0077    Q 1.66781307 +/- 0.0368
From 10 observations 2020 Mar. 16-17 (20.4 hr); mean residual 0".37
Residuals in arcseconds: 
200316 G96  .01-  .07+    200316 I52  .19-  .54-    200317 807  .07-  .17+    
200316 G96  .06+  .28+    200316 I52  .79-  .10+    200317 807  .06-  .00     
200316 G96  .47-  .16-    200316 I52  .92+  .51+    
200316 G96  .49+  .24-    200317 807  .13+  .19-    

Ephemerides (geocentric):
Date (UTC) HH   RA              Dec         delta   r     elong  mag " sig PA
---- -- -- --  -------------   -----------  ------ ------ -----  --- ---- ---
2020 03 28 06  10 53 19.415   -07 36 00.15  .12933 1.1175 155.9 25.0  165  88
2020 03 28 07  10 53 19.357   -07 35 57.03  .12967 1.1178 155.9 25.0  165  88
2020 03 28 08  10 53 19.305   -07 35 53.91  .13002 1.1181 155.8 25.0  165  88
2020 03 28 09  10 53 19.261   -07 35 50.79  .13036 1.1184 155.8 25.0  166  88
2020 03 28 10  10 53 19.224   -07 35 47.67  .13071 1.1187 155.8 25.0  166  88
2020 03 28 11  10 53 19.193   -07 35 44.55  .13105 1.1190 155.7 25.0  166  88
2020 03 28 12  10 53 19.169   -07 35 41.44  .13140 1.1193 155.7 25.0  166  88
2020 03 28 13  10 53 19.152   -07 35 38.33  .13174 1.1197 155.7 25.0  167  88
2020 03 28 14  10 53 19.142   -07 35 35.22  .13209 1.1200 155.6 25.0  167  88
2020 03 28 15  10 53 19.139   -07 35 32.11  .13243 1.1203 155.6 25.0  167  88
2020 03 28 16  10 53 19.142   -07 35 29.00  .13278 1.1206 155.6 25.0  167  88
2020 03 28 17  10 53 19.152   -07 35 25.90  .13313 1.1209 155.5 25.1  167  88
2020 03 28 18  10 53 19.168   -07 35 22.79  .13347 1.1212 155.5 25.1  168  88
2020 03 28 19  10 53 19.191   -07 35 19.69  .13382 1.1215 155.5 25.1  168  88
2020 03 28 20  10 53 19.221   -07 35 16.59  .13416 1.1218 155.4 25.1  168  88
2020 03 28 21  10 53 19.257   -07 35 13.50  .13451 1.1221 155.4 25.1  168  88
2020 03 28 22  10 53 19.300   -07 35 10.40  .13486 1.1224 155.4 25.1  169  88
2020 03 28 23  10 53 19.349   -07 35 07.31  .13520 1.1227 155.3 25.1  169  88
2020 03 29 00  10 53 19.405   -07 35 04.22  .13555 1.1230 155.3 25.1  169  88
2020 03 29 01  10 53 19.467   -07 35 01.14  .13590 1.1233 155.3 25.1  169  88
2020 03 29 02  10 53 19.535   -07 34 58.05  .13624 1.1236 155.2 25.1  169  88
2020 03 29 03  10 53 19.610   -07 34 54.97  .13659 1.1239 155.2 25.1  170  88
2020 03 29 04  10 53 19.691   -07 34 51.89  .13694 1.1242 155.2 25.1  170  88
2020 03 29 05  10 53 19.779   -07 34 48.82  .13728 1.1245 155.1 25.1  170  88
2020 03 29 06  10 53 19.873   -07 34 45.74  .13763 1.1248 155.1 25.1  170  88
2020 03 29 07  10 53 19.973   -07 34 42.67  .13798 1.1251 155.0 25.2  170  88
2020 03 29 08  10 53 20.079   -07 34 39.60  .13832 1.1254 155.0 25.2  171  88
2020 03 29 09  10 53 20.192   -07 34 36.54  .13867 1.1257 155.0 25.2  171  88
2020 03 29 10  10 53 20.310   -07 34 33.47  .13902 1.1260 154.9 25.2  171  88
2020 03 29 11  10 53 20.435   -07 34 30.42  .13937 1.1263 154.9 25.2  171  88
2020 03 29 12  10 53 20.566   -07 34 27.36  .13971 1.1266 154.9 25.2  171  88
2020 03 29 13  10 53 20.704   -07 34 24.31  .14006 1.1269 154.8 25.2  172  88
2020 03 29 14  10 53 20.847   -07 34 21.25  .14041 1.1272 154.8 25.2  172  88
2020 03 29 15  10 53 20.996   -07 34 18.21  .14076 1.1275 154.8 25.2  172  88
2020 03 29 16  10 53 21.152   -07 34 15.16  .14110 1.1278 154.7 25.2  172  88
2020 03 29 17  10 53 21.313   -07 34 12.12  .14145 1.1281 154.7 25.2  172  88
2020 03 29 18  10 53 21.480   -07 34 09.09  .14180 1.1284 154.7 25.2  172  88
2020 03 29 19  10 53 21.654   -07 34 06.05  .14215 1.1288 154.6 25.2  173  88
2020 03 29 20  10 53 21.833   -07 34 03.02  .14250 1.1291 154.6 25.2  173  88
2020 03 29 21  10 53 22.018   -07 33 59.99  .14284 1.1294 154.6 25.2  173  88
2020 03 29 22  10 53 22.209   -07 33 56.97  .14319 1.1297 154.5 25.3  173  88
2020 03 29 23  10 53 22.406   -07 33 53.95  .14354 1.1300 154.5 25.3  173  88
2020 03 30 00  10 53 22.609   -07 33 50.93  .14389 1.1303 154.5 25.3  173  88
2020 03 30 01  10 53 22.818   -07 33 47.92  .14424 1.1306 154.4 25.3  174  88
2020 03 30 02  10 53 23.032   -07 33 44.91  .14459 1.1309 154.4 25.3  174  88
2020 03 30 03  10 53 23.253   -07 33 41.90  .14494 1.1312 154.4 25.3  174  88
2020 03 30 04  10 53 23.479   -07 33 38.90  .14529 1.1315 154.3 25.3  174  89
2020 03 30 05  10 53 23.710   -07 33 35.90  .14563 1.1318 154.3 25.3  174  89